Home   Weather   Valletta   Past weeks

Flag for Malta Past Weather in Valletta, Malta — Yesterday and Last 2 Weeks

Now
68 °F

Passing clouds.


Feels Like: 68 °F
Forecast: 58 / 66 °F
Wind: 12 mph from Southeast

Location: Luqa

Current Time: Apr 24, 2017 at 3:37:06 pm

Latest Report: Apr 24, 2017 at 2:45 pm


Visibility: N/A

Pressure: 30.12 "Hg

Humidity: 56%

Dew Point: 52 °F

Location of VallettaLocation

Past Weather in Valletta — Graph

°F

Valletta Temperature Yesterday

Maximum temperature yesterday: 64 °F (at 12:45 pm)
Minimum temperature yesterday: 52 °F (at 3:15 am)
Average temperature yesterday: 58 °F

High & Low Weather Summary for the Past Weeks

 TemperatureHumidityPressure
High75 °F (Apr 15, 12:15 pm)100% (Apr 11, 10:15 pm)30.27 "Hg (Apr 11, 10:15 pm)
Low48 °F (Apr 22, 2:15 am)29% (Apr 13, 1:45 pm)29.89 "Hg (Apr 19, 4:15 am)
Average61 °F71%30.06 "Hg
* Reported Apr 9 2:15 pm — Apr 24 2:15 pm, Valletta, Weather by CustomWeather, © 2017

Note: Actual official high and low records may vary slightly from our data, if they occured in-between our weather recording intervals... More about our weather records

Advertising

Valletta Weather History for the Previous 24 Hours

Scroll right to see more
 ConditionsComfort  
Time TempWeatherWind HumidityBarometerVisibility
2:15 pm
Mon, Apr 24
66 °FScattered clouds.9 mph60%30.15 "HgN/A
1:45 pm66 °FScattered clouds.9 mph56%30.15 "HgN/A
1:15 pm66 °FPartly sunny.12 mph60%30.15 "HgN/A
12:45 pm64 °FPartly sunny.13 mph64%30.18 "HgN/A
12:15 pm64 °FPartly sunny.9 mph60%30.18 "HgN/A
11:45 am64 °FPartly sunny.8 mph60%30.18 "HgN/A
11:15 am63 °FPartly sunny.8 mph64%30.18 "HgN/A
10:45 am63 °FPartly sunny.8 mph64%30.18 "HgN/A
10:15 am63 °FPassing clouds.9 mph59%30.18 "HgN/A
9:45 am63 °FPassing clouds.9 mph59%30.15 "HgN/A
9:15 am61 °FPassing clouds.7 mph63%30.15 "HgN/A
8:45 am61 °FPassing clouds.7 mph63%30.15 "HgN/A
8:15 am59 °FSunny.7 mph68%30.15 "Hg10 mi
7:45 am59 °FPassing clouds.5 mph68%30.15 "HgN/A
7:15 am52 °FPassing clouds.3 mph82%30.12 "HgN/A
6:45 am48 °FPassing clouds.1 mph87%30.12 "HgN/A
6:15 am50 °FPassing clouds.2 mph82%30.12 "HgN/A
5:45 am50 °FPassing clouds.2 mph82%30.12 "HgN/A
5:15 am48 °FPassing clouds.1 mph87%30.12 "HgN/A
4:45 am48 °FClear.3 mph87%30.12 "Hg10 mi
4:15 am50 °FClear.5 mph82%30.12 "Hg10 mi
3:45 am50 °FClear.2 mph82%30.12 "Hg10 mi
3:15 am50 °FClear.3 mph82%30.15 "Hg10 mi
2:45 am50 °FClear.5 mph82%30.15 "Hg10 mi
2:15 am50 °FClear.2 mph82%30.15 "Hg10 mi
1:45 am54 °FClear.3 mph72%30.15 "Hg10 mi
1:15 am54 °FClear.3 mph72%30.15 "Hg10 mi
12:45 am54 °FClear.5 mph72%30.18 "Hg10 mi
12:15 am54 °FClear.5 mph72%30.18 "Hg10 mi
11:45 pm
Sun, Apr 23
54 °FClear.2 mph72%30.18 "Hg10 mi
11:15 pm55 °FPassing clouds.3 mph67%30.18 "HgN/A
10:45 pm55 °FClear.5 mph67%30.18 "Hg10 mi
10:15 pm55 °FPassing clouds.5 mph67%30.18 "HgN/A
9:45 pm55 °FPassing clouds.5 mph67%30.18 "HgN/A
9:15 pm55 °FPassing clouds.5 mph63%30.18 "HgN/A
8:45 pm55 °FPassing clouds.3 mph63%30.18 "HgN/A
8:15 pm55 °FPassing clouds.6 mph63%30.18 "HgN/A
7:45 pm57 °FPassing clouds.7 mph59%30.15 "HgN/A
7:15 pm59 °FPassing clouds.7 mph55%30.15 "HgN/A
6:45 pm61 °FPassing clouds.8 mph52%30.15 "HgN/A
6:15 pm61 °FPassing clouds.8 mph52%30.15 "HgN/A
5:45 pm61 °FPassing clouds.10 mph55%30.15 "HgN/A
5:15 pm63 °FPassing clouds.9 mph52%30.18 "HgN/A
4:45 pm63 °FPassing clouds.10 mph52%30.18 "HgN/A
4:15 pm63 °FPassing clouds.9 mph49%30.18 "HgN/A
3:15 pm63 °FScattered clouds.10 mph52%30.18 "HgN/A
Weather by CustomWeather, © 2017

See weather overviewHow to use our weather pages